Regional Weather Roundup
Issued by NWS Midland/Odessa, TX

Skip options and go directly to product.
Home | Oldest Version | Previous Version | Current Version | All | Graphics & Text | Save Text | Print | Product List | Glossary On

Skip product version selection by date and time.   
757
ASUS44 KMAF 210210
RWRMAF
MIDLAND AREA WEATHER ROUNDUP
NATIONAL WEATHER SERVICE MIDLAND TX
800 PM CST THU NOV 20 2014

...IN SOUTHWEST TEXAS AND SOUTHEAST NEW MEXICO...

CITY           SKY/WX    TMP DP  RH WIND       PRES   REMARKS
ALPINE         CLEAR     50  23  34 CALM      30.12R
ANDREWS        FAIR      54  19  25 SW6       29.98R
ARTESIA        NOT AVBL
BIG SPRING     CLEAR     54  27  36 SE10      29.99R
CARLSBAD       CLEAR     53  20  27 SW9       29.95R
DRYDEN           N/A     54  45  71 E6        30.00R
FORT STOCKTON  CLEAR     55  33  43 S9        30.00R
GUAD PASS      CLEAR     51  16  24 SW17      30.07R
HOBBS          CLEAR     50  10  20 SW5       29.99R
MARFA          CLEAR     39  23  52 NE7       30.10S WCI  34
MIDLAND AIRPK  CLEAR     56  29  34 S5        29.99R
MIDLAND INTL   CLEAR     52  29  41 S3        29.98R
ODESSA         CLEAR     58  24  27 CALM      29.99R
PECOS          CLEAR     57  24  27 S5        29.98R
PRESIDIO       FAIR      58  37  45 N9        30.01R
SEMINOLE       CLEAR     50  20  30 CALM      29.99R
SNYDER         CLEAR     57  27  32 S10       29.96S
WINK           CLEAR     58  17  20 W6        29.96R
$$
...OTHER STATIONS IN TEXAS...

CITY           SKY/WX    TMP DP  RH WIND       PRES   REMARKS
ABILENE        CLEAR     56  40  55 SE8       29.97R
AMARILLO       CLEAR     41  27  57 NE6       30.02R WCI  37
AUSTIN         LGT RAIN  63  63 100 S10       30.05R
BROWNSVILLE    CLOUDY    69  67  93 SE8       30.05S
CORPUS CHRISTI CLOUDY    68  65  90 S12       30.04R
DALLAS FTW     PTCLDY    61  54  77 S9        30.02R
DEL RIO        CLEAR     63  55  75 E8        30.00R
EL PASO        PTCLDY    59  19  21 S5        30.01R
HOUSTON INT    CLOUDY    64  57  78 S6        30.11R
LUBBOCK        CLEAR     45  23  42 NE10      29.96R WCI  40
SAN ANGELO     CLEAR     56  44  64 S6        29.98R
SAN ANTONIO    MOCLDY    63  62  97 CALM      30.05R
WACO           MOCLDY    64  59  83 SE15      30.04R
WICHITA FALLS  NOT AVBL
$$
...OTHER LOCATIONS IN NEW MEXICO...

CITY           SKY/WX    TMP DP  RH WIND       PRES   REMARKS
ALAMAGORDO     PTCLDY    43   9  24 MISG      30.02S
ALBUQUERQUE    PTCLDY    45   6  20 CALM      30.04R
CANNON AFB     PTCLDY    43  22  43 NE5       29.99R
CLOVIS         PTCLDY    39  21  48 NE9       29.98R WCI  33
HOLLOMAN AFB   PTCLDY    46  12  24 E6        30.01R
ROSWELL        CLEAR     51  21  30 NW7       29.97R
RUIDOSO        CLEAR     45   7  21 W3        30.11R
SANTA FE       CLEAR     36  11  35 N9        30.05S WCI  29
TRUTH OR CONSE CLEAR     52  14  22 NW7       30.01R
TUCUMCARI      CLEAR     41  25  53 E6        29.97R WCI  37
$$

USA.gov is the U.S. government's official web portal to all federal, state and local government web resources and services.